Content
SEND FEEDBACK

Daily
Averages
Monthly
Summary
Canada

CALGARY, ALBERTA


Home > North America > Canada > Alberta
Elevation: 3556 feet     Latitude: 51 06N     Longitude: 114 01W

WEATHER
 
SELECT A DAY
Number of Records: 192,160;   Date Range: 1/1/95 - 7/30/14
 
SHARE

PRINT THIS DATA

[ ← Previous Day ]
WEATHER ALMANAC - JANUARY 3, 2013
[ Next Day → ]
[ °C ]   °F
Weather ElementAverageHighLow
Temperature34.6 °F46.4 °F (1:00 am)15.8 °F (10:00 pm)
Dewpoint11.5 °F17.6 °F (1:34 pm)6.8 °F (9:00 pm)
Humidity39.4 %68 % (10:00 pm)16 % (11:00 am)
Barometer30.10 in30.14 in (6:00 pm)30.06 in (1:00 am)
Wind Speed11.7 mph19.6 mph (1:00 am)
Wind Gust27.6 mph (2:00 am)
Weather ElementAverage
Visibility26.2 mi
Wind DirectionWNW (283.2 °)

Weather ElementTotal
Precipitation---
Heating Degree Days33.9 (Base 65)
Averaged from 28 records on January 3, 2013
WEATHER CONDITIONS BREAKOUT
WIND DIRECTION BREAKOUT
WEATHER BY HOUR - JANUARY 3, 2013
[ °C ]   °F
Local TimeTemperatureDewpointHumidityBarometerVisibilityWind DirectionWind SpeedGust SpeedPrecipitationEventsConditions
1:00 AM46.4 °F10.4 °F23 %30.06 in15.0 miWest (280°)19.6 mph26.5 mphMostly Cloudy
2:00 AM44.6 °F10.4 °F25 %30.07 in15.0 miWest (280°)19.6 mph27.6 mphMostly Cloudy
3:00 AM46.4 °F10.4 °F23 %30.09 in15.0 miWNW (290°)13.8 mph20.7 mphMostly Cloudy
4:00 AM35.6 °F12.2 °F38 %30.12 in15.0 miSSW (200°)12.7 mph18.4 mphMostly Cloudy
5:00 AM38.0 °F10.0 °F18 %30.12 in15.0 miWest (270°)9.2 mphClear
5:00 AM37.4 °F10.4 °F33 %30.12 in15.0 miWNW (290°)10.4 mphMostly Cloudy
6:00 AM41.0 °F8.6 °F26 %30.09 in15.0 miWest (260°)9.2 mphMostly Cloudy
7:00 AM41.0 °F10.4 °F29 %30.08 in15.0 miWNW (290°)13.8 mph25.3 mphMostly Cloudy
8:00 AM41.0 °F8.6 °F26 %30.08 in30.0 miWNW (290°)16.1 mph23.0 mphMostly Cloudy
9:00 AM42.8 °F10.4 °F27 %30.10 in40.0 miWNW (290°)17.3 mph25.3 mphMostly Cloudy
10:00 AM42.8 °F14.0 °F31 %30.12 in40.0 miWest (280°)12.7 mph23.0 mphMostly Cloudy
11:00 AM46.0 °F15.0 °F16 %30.07 in37.0 miWNW (300°)15.0 mphPartly Cloudy
11:00 AM46.4 °F14.0 °F27 %30.07 in40.0 miWNW (300°)13.8 mph20.7 mphMostly Cloudy
12:00 PM46.4 °F14.0 °F27 %30.06 in40.0 miWNW (300°)11.5 mph19.6 mphMostly Cloudy
1:00 PM42.8 °F15.8 °F34 %30.06 in40.0 miWNW (300°)9.2 mphMostly Cloudy
1:34 PM35.6 °F17.6 °F48 %30.07 in40.0 miSW (230°)8.1 mphMostly Cloudy
2:00 PM32.0 °F15.8 °F51 %30.07 in40.0 miSSW (210°)10.4 mphScattered Clouds
3:00 PM32.0 °F14.0 °F48 %30.08 in40.0 miSSW (210°)8.1 mphScattered Clouds
4:00 PM30.2 °F14.0 °F51 %30.13 in40.0 miNorth (10°)10.4 mphMostly Cloudy
5:00 PM30.0 °F14.0 °F38 %30.13 in37.0 miNorth (350°)15.0 mphMostly Cloudy
5:00 PM30.2 °F14.0 °F51 %30.13 in40.0 miNorth (350°)17.3 mphMostly Cloudy
6:00 PM28.4 °F12.2 °F51 %30.14 in20.0 miNW (320°)8.1 mphMostly Cloudy
7:00 PM24.8 °F10.4 °F54 %30.13 in15.0 miNorth (350°)8.1 mphScattered Clouds
8:00 PM21.2 °F8.6 °F58 %30.13 in15.0 miNNW (330°)8.1 mphClear
9:00 PM17.6 °F6.8 °F63 %30.12 in15.0 miNNW (330°)10.4 mphClear
10:00 PM15.8 °F6.8 °F68 %30.12 in15.0 miNorth (350°)6.9 mphClear
11:00 PM17.0 °F7.0 °F52 %30.12 in15.0 miNNW (330°)5.8 mphClear
11:00 PM15.8 °F6.8 °F68 %30.11 in15.0 miNNW (340°)5.8 mphPartly Cloudy
Hourly data recorded from CYYC, located miles away from Calgary, Alberta







STORIES FROM OUR PARTNERS